Etusivu
METAR-TAF:

METAR-TAF

Lentoasemat :

Bay City, Texas, Yhdysvallat

Leveyspiiri: 28-58-23N, Pituuspiiri: 095-51-48W, korkeus merenpinnasta: 14 m

Tämänhetkinen sää

Tämä raportti tehtiin 14 minuuttia sitten, kello 05.15 UTC
tyyntä
Lämpötila 13°C
Kosteus 94%
Ilmanpaine 1020 hPa
Näkyvyys: 16.1 km
selkeää

METAR: KBYY 300515Z AUTO 00000KT 10SM CLR 13/12 A3011 RMK AO2 T01370119

Aika: 00:29 (05:29 UTC)


TAF: puuttuu

Säähavainnot ja -ennusteet yli 4000 lentoasemalta (METAR- ja TAF-raportit).

Käytössä olevat sääasemat on merkitty karttaan keltaisilla ja punaisilla pisteillä.

Aseta hiiri pisteen päälle nähdäksesi sääaseman nimen.

Klikkaa sitten nähdäksesi säähavainnot ja -ennusteet.

Kartan vaihtaminen: klikkaa mustalla rastilla varustettuja vihreitä pisteitä, niin voit zoomata sisään; viivalla varustettua vihreää pistettä, niin voit zoomata ulos tai vihreitä nuolia, niin pääset viereisille kartoille.


METAR-TAF: